Time,TemperatureF,DewpointF,PressureIn,WindDirection,WindDirectionDegrees,WindSpeedMPH,WindSpeedGustMPH,Humidity,HourlyPrecipIn,Conditions,Clouds,dailyrainin,SoftwareType,DateUTC
2013-11-15 00:04:00,46.7,25.9,30.03,SE,127,1.0,4.0,44,0.00,,,0.00,Wunderground v.1.15,2013-11-15 06:04:00,
2013-11-15 00:09:00,46.8,26.6,30.03,ESE,118,1.0,1.0,45,0.00,,,0.00,Wunderground v.1.15,2013-11-15 06:09:00,
2013-11-15 00:14:00,46.8,26.6,30.03,ESE,108,1.0,2.0,45,0.00,,,0.00,Wunderground v.1.15,2013-11-15 06:14:00,
2013-11-15 00:19:00,46.9,26.1,30.03,ESE,114,1.0,1.0,44,0.00,,,0.00,Wunderground v.1.15,2013-11-15 06:19:00,
2013-11-15 00:24:00,46.9,26.1,30.03,ESE,120,1.0,2.0,44,0.00,,,0.00,Wunderground v.1.15,2013-11-15 06:24:00,
2013-11-15 00:34:00,46.8,26.0,30.03,ESE,105,0.0,2.0,44,0.00,,,0.00,Wunderground v.1.15,2013-11-15 06:34:00,
2013-11-15 00:44:00,46.8,26.6,30.03,SSW,208,0.0,2.0,45,0.00,,,0.00,Wunderground v.1.15,2013-11-15 06:44:00,
2013-11-15 00:49:00,46.9,26.1,30.03,ESE,115,0.0,2.0,44,0.00,,,0.00,Wunderground v.1.15,2013-11-15 06:49:00,
2013-11-15 00:54:00,46.8,26.6,30.03,SE,136,0.0,2.0,45,0.00,,,0.00,Wunderground v.1.15,2013-11-15 06:54:00,
2013-11-15 01:04:00,46.8,26.0,30.03,ESE,115,1.0,2.0,44,0.00,,,0.00,Wunderground v.1.15,2013-11-15 07:04:00,
2013-11-15 01:09:00,46.8,26.0,30.03,ESE,110,0.0,2.0,44,0.00,,,0.00,Wunderground v.1.15,2013-11-15 07:09:00,
2013-11-15 01:14:00,46.8,26.0,30.03,ESE,114,0.0,2.0,44,0.00,,,0.00,Wunderground v.1.15,2013-11-15 07:14:00,
2013-11-15 01:19:00,46.8,26.6,30.03,SSW,204,0.0,2.0,45,0.00,,,0.00,Wunderground v.1.15,2013-11-15 07:19:00,
2013-11-15 01:24:00,46.8,26.6,30.03,East,101,0.0,2.0,45,0.00,,,0.00,Wunderground v.1.15,2013-11-15 07:24:00,
2013-11-15 01:29:00,46.8,27.1,30.03,ESE,118,0.0,2.0,46,0.00,,,0.00,Wunderground v.1.15,2013-11-15 07:29:00,
2013-11-15 01:39:00,46.7,26.5,30.03,ESE,116,0.0,2.0,45,0.00,,,0.00,Wunderground v.1.15,2013-11-15 07:39:00,
2013-11-15 01:44:00,46.7,27.0,30.03,SSE,152,0.0,2.0,46,0.00,,,0.00,Wunderground v.1.15,2013-11-15 07:44:00,
2013-11-15 01:49:00,46.7,27.5,30.03,SSW,207,0.0,2.0,47,0.00,,,0.00,Wunderground v.1.15,2013-11-15 07:49:00,
2013-11-15 01:54:00,46.8,27.1,30.03,SSE,148,0.0,2.0,46,0.00,,,0.00,Wunderground v.1.15,2013-11-15 07:54:00,
2013-11-15 02:04:00,46.9,27.7,30.03,SSE,150,0.0,2.0,47,0.00,,,0.00,Wunderground v.1.15,2013-11-15 08:04:00,
2013-11-15 02:14:00,46.8,28.6,30.03,East,85,0.0,2.0,49,0.00,,,0.00,Wunderground v.1.15,2013-11-15 08:14:00,
2013-11-15 02:19:00,46.7,28.5,30.03,ESE,114,0.0,2.0,49,0.00,,,0.00,Wunderground v.1.15,2013-11-15 08:19:00,
2013-11-15 02:24:00,46.8,28.1,30.03,ENE,68,0.0,2.0,48,0.00,,,0.00,Wunderground v.1.15,2013-11-15 08:24:00,
2013-11-15 02:34:00,46.9,28.2,30.03,SE,125,0.0,2.0,48,0.00,,,0.00,Wunderground v.1.15,2013-11-15 08:34:00,
2013-11-15 02:39:00,46.9,28.2,30.03,SSE,158,0.0,2.0,48,0.00,,,0.00,Wunderground v.1.15,2013-11-15 08:39:00,
2013-11-15 02:49:00,47.1,28.4,30.03,ESE,110,0.0,2.0,48,0.00,,,0.00,Wunderground v.1.15,2013-11-15 08:49:00,
2013-11-15 02:59:00,47.2,28.5,30.02,SE,124,0.0,2.0,48,0.00,,,0.00,Wunderground v.1.15,2013-11-15 08:59:00,
2013-11-15 03:09:00,47.2,29.5,30.02,SE,124,0.0,2.0,50,0.00,,,0.00,Wunderground v.1.15,2013-11-15 09:09:00,
2013-11-15 03:14:00,47.3,29.6,30.02,ESE,105,0.0,2.0,50,0.00,,,0.00,Wunderground v.1.15,2013-11-15 09:14:00,
2013-11-15 03:24:00,47.1,30.4,30.02,ESE,108,0.0,2.0,52,0.00,,,0.00,Wunderground v.1.15,2013-11-15 09:24:00,
2013-11-15 03:34:00,46.6,31.7,30.02,East,88,1.0,4.0,56,0.00,,,0.00,Wunderground v.1.15,2013-11-15 09:34:00,
2013-11-15 03:44:00,46.2,32.2,30.02,ESE,115,1.0,2.0,58,0.00,,,0.00,Wunderground v.1.15,2013-11-15 09:44:00,
2013-11-15 03:49:00,46.2,32.7,30.02,ESE,113,1.0,1.0,59,0.00,,,0.00,Wunderground v.1.15,2013-11-15 09:49:00,
2013-11-15 03:59:00,46.0,33.3,30.01,ESE,108,1.0,2.0,61,0.00,,,0.00,Wunderground v.1.15,2013-11-15 09:59:00,
2013-11-15 04:09:00,45.9,33.6,30.01,SE,141,1.0,2.0,62,0.00,,,0.00,Wunderground v.1.15,2013-11-15 10:09:00,
2013-11-15 04:14:00,45.8,33.9,30.01,ESE,118,1.0,2.0,63,0.00,,,0.00,Wunderground v.1.15,2013-11-15 10:14:00,
2013-11-15 04:19:00,45.7,33.8,30.01,SE,126,1.0,1.0,63,0.00,,,0.00,Wunderground v.1.15,2013-11-15 10:19:00,
2013-11-15 04:29:00,45.7,33.8,30.01,East,91,1.0,1.0,63,0.00,,,0.00,Wunderground v.1.15,2013-11-15 10:29:00,
2013-11-15 04:34:00,45.7,34.2,30.01,East,100,1.0,2.0,64,0.00,,,0.00,Wunderground v.1.15,2013-11-15 10:34:00,
2013-11-15 04:39:00,45.7,34.2,30.01,ESE,111,0.0,2.0,64,0.00,,,0.00,Wunderground v.1.15,2013-11-15 10:39:00,
2013-11-15 04:44:00,45.7,34.2,30.01,ESE,103,1.0,2.0,64,0.00,,,0.00,Wunderground v.1.15,2013-11-15 10:44:00,
2013-11-15 04:49:00,45.6,34.1,30.01,East,84,1.0,1.0,64,0.00,,,0.00,Wunderground v.1.15,2013-11-15 10:49:00,
2013-11-15 04:59:00,45.7,34.2,30.01,ESE,113,0.0,2.0,64,0.00,,,0.00,Wunderground v.1.15,2013-11-15 10:59:00,
2013-11-15 05:04:00,45.7,34.2,30.01,SE,128,0.0,2.0,64,0.00,,,0.00,Wunderground v.1.15,2013-11-15 11:04:00,
2013-11-15 05:14:00,45.7,34.2,30.01,SE,129,0.0,2.0,64,0.00,,,0.00,Wunderground v.1.15,2013-11-15 11:14:00,
2013-11-15 05:24:00,45.9,34.4,30.01,ESE,122,1.0,6.0,64,0.00,,,0.00,Wunderground v.1.15,2013-11-15 11:24:00,
2013-11-15 05:29:00,45.8,34.3,30.01,East,96,1.0,1.0,64,0.00,,,0.00,Wunderground v.1.15,2013-11-15 11:29:00,
2013-11-15 05:34:00,45.8,34.3,30.00,ESE,103,0.0,2.0,64,0.00,,,0.00,Wunderground v.1.15,2013-11-15 11:34:00,
2013-11-15 05:39:00,45.8,34.3,30.00,ENE,70,0.0,2.0,64,0.00,,,0.00,Wunderground v.1.15,2013-11-15 11:39:00,
2013-11-15 05:49:00,45.7,34.6,30.00,ESE,113,0.0,2.0,65,0.00,,,0.00,Wunderground v.1.15,2013-11-15 11:49:00,
2013-11-15 05:54:00,45.6,34.5,30.00,SE,134,0.0,2.0,65,0.00,,,0.00,Wunderground v.1.15,2013-11-15 11:54:00,
2013-11-15 06:04:00,45.5,34.8,30.00,ENE,76,0.0,2.0,66,0.00,,,0.00,Wunderground v.1.15,2013-11-15 12:04:00,
2013-11-15 06:14:00,45.3,34.6,30.00,ESE,105,0.0,2.0,66,0.00,,,0.00,Wunderground v.1.15,2013-11-15 12:14:00,
2013-11-15 06:19:00,45.3,34.6,30.00,East,97,0.0,2.0,66,0.00,,,0.00,Wunderground v.1.15,2013-11-15 12:19:00,
2013-11-15 06:29:00,45.3,34.6,30.00,ENE,70,0.0,2.0,66,0.00,,,0.00,Wunderground v.1.15,2013-11-15 12:29:00,
2013-11-15 06:39:00,45.3,34.6,30.00,East,97,0.0,2.0,66,0.00,,,0.00,Wunderground v.1.15,2013-11-15 12:39:00,
2013-11-15 06:44:00,45.3,34.6,30.00,ESE,118,0.0,2.0,66,0.00,,,0.00,Wunderground v.1.15,2013-11-15 12:44:00,
2013-11-15 06:54:00,45.3,34.2,30.01,East,100,1.0,2.0,65,0.00,,,0.00,Wunderground v.1.15,2013-11-15 12:54:00,
2013-11-15 07:04:00,45.4,34.3,30.01,ESE,104,0.0,2.0,65,0.00,,,0.00,Wunderground v.1.15,2013-11-15 13:04:00,
2013-11-15 07:14:00,45.4,34.3,30.01,ESE,117,0.0,2.0,65,0.00,,,0.00,Wunderground v.1.15,2013-11-15 13:14:00,
2013-11-15 07:19:00,45.5,34.4,30.01,ESE,111,0.0,2.0,65,0.00,,,0.00,Wunderground v.1.15,2013-11-15 13:19:00,
2013-11-15 07:24:00,45.5,34.0,30.01,ESE,114,1.0,2.0,64,0.00,,,0.00,Wunderground v.1.15,2013-11-15 13:24:00,
2013-11-15 07:34:00,45.6,34.1,30.01,ESE,114,0.0,2.0,64,0.00,,,0.00,Wunderground v.1.15,2013-11-15 13:34:00,
2013-11-15 07:44:00,45.8,34.3,30.01,East,92,0.0,2.0,64,0.00,,,0.00,Wunderground v.1.15,2013-11-15 13:44:00,
2013-11-15 07:54:00,46.0,34.1,30.01,ESE,110,0.0,2.0,63,0.00,,,0.00,Wunderground v.1.15,2013-11-15 13:54:00,
2013-11-15 08:04:00,46.1,33.8,30.01,ESE,108,1.0,2.0,62,0.00,,,0.00,Wunderground v.1.15,2013-11-15 14:04:00,
2013-11-15 08:09:00,46.2,33.9,30.01,ESE,103,1.0,1.0,62,0.00,,,0.00,Wunderground v.1.15,2013-11-15 14:09:00,
2013-11-15 08:19:00,46.3,34.0,30.01,East,86,1.0,1.0,62,0.00,,,0.00,Wunderground v.1.15,2013-11-15 14:19:00,
2013-11-15 08:24:00,46.4,34.1,30.01,ESE,103,1.0,2.0,62,0.00,,,0.00,Wunderground v.1.15,2013-11-15 14:24:00,
2013-11-15 08:34:00,46.9,33.7,30.02,ESE,117,1.0,2.0,60,0.00,,,0.00,Wunderground v.1.15,2013-11-15 14:34:00,
2013-11-15 08:39:00,47.3,34.1,30.01,ESE,105,0.0,2.0,60,0.00,,,0.00,Wunderground v.1.15,2013-11-15 14:39:00,
2013-11-15 08:49:00,47.8,34.2,30.01,SE,132,2.0,2.0,59,0.00,,,0.00,Wunderground v.1.15,2013-11-15 14:49:00,
2013-11-15 08:59:00,49.0,34.4,30.01,East,94,1.0,2.0,57,0.00,,,0.00,Wunderground v.1.15,2013-11-15 14:59:00,
2013-11-15 09:09:00,50.5,34.5,30.01,ESE,108,2.0,2.0,54,0.00,,,0.00,Wunderground v.1.15,2013-11-15 15:09:00,
2013-11-15 09:19:00,51.6,34.5,30.01,SE,145,2.0,5.0,52,0.00,,,0.00,Wunderground v.1.15,2013-11-15 15:19:00,
2013-11-15 09:24:00,52.3,35.7,30.00,ESE,118,3.0,5.0,53,0.00,,,0.00,Wunderground v.1.15,2013-11-15 15:24:00,
2013-11-15 09:34:00,52.9,34.8,30.01,ESE,118,3.0,3.0,50,0.00,,,0.00,Wunderground v.1.15,2013-11-15 15:34:00,
2013-11-15 09:44:00,52.8,35.2,30.01,East,82,3.0,3.0,51,0.00,,,0.00,Wunderground v.1.15,2013-11-15 15:44:00,
2013-11-15 09:49:00,53.7,35.0,30.01,ESE,108,3.0,6.0,49,0.00,,,0.00,Wunderground v.1.15,2013-11-15 15:49:00,
2013-11-15 09:59:00,53.0,34.8,30.01,SE,125,5.0,7.0,50,0.00,,,0.00,Wunderground v.1.15,2013-11-15 15:59:00,
2013-11-15 10:09:00,52.2,35.1,30.00,ESE,119,4.0,4.0,52,0.00,,,0.00,Wunderground v.1.15,2013-11-15 16:09:00,
2013-11-15 10:19:00,52.6,35.5,30.00,ESE,119,2.0,4.0,52,0.00,,,0.00,Wunderground v.1.15,2013-11-15 16:19:00,
2013-11-15 10:29:00,53.4,36.2,29.99,ESE,113,2.0,9.0,52,0.00,,,0.00,Wunderground v.1.15,2013-11-15 16:29:00,
2013-11-15 10:34:00,53.2,35.5,30.00,SSE,163,3.0,9.0,51,0.00,,,0.00,Wunderground v.1.15,2013-11-15 16:34:00,
2013-11-15 10:39:00,53.1,35.9,30.00,ESE,122,4.0,4.0,52,0.00,,,0.00,Wunderground v.1.15,2013-11-15 16:39:00,
2013-11-15 10:44:00,53.2,36.5,30.00,SE,132,3.0,4.0,53,0.00,,,0.00,Wunderground v.1.15,2013-11-15 16:44:00,
2013-11-15 10:54:00,54.7,37.4,29.99,ESE,112,2.0,5.0,52,0.00,,,0.00,Wunderground v.1.15,2013-11-15 16:54:00,
2013-11-15 11:04:00,54.3,37.0,29.98,East,92,4.0,4.0,52,0.00,,,0.00,Wunderground v.1.15,2013-11-15 17:04:00,
2013-11-15 11:09:00,54.4,37.1,29.98,SE,138,3.0,3.0,52,0.00,,,0.00,Wunderground v.1.15,2013-11-15 17:09:00,
2013-11-15 11:14:00,53.6,37.3,29.97,SE,146,3.0,3.0,54,0.00,,,0.00,Wunderground v.1.15,2013-11-15 17:14:00,
2013-11-15 11:24:00,53.2,37.9,29.96,SE,139,2.0,3.0,56,0.00,,,0.00,Wunderground v.1.15,2013-11-15 17:24:00,
2013-11-15 11:34:00,53.0,38.2,29.95,SW,225,2.0,3.0,57,0.00,,,0.00,Wunderground v.1.15,2013-11-15 17:34:00,
2013-11-15 11:44:00,54.3,38.5,29.95,ESE,103,2.0,3.0,55,0.00,,,0.00,Wunderground v.1.15,2013-11-15 17:44:00,
2013-11-15 11:54:00,54.8,38.9,29.94,East,84,2.0,5.0,55,0.00,,,0.00,Wunderground v.1.15,2013-11-15 17:54:00,
2013-11-15 11:59:00,54.7,39.3,29.94,ENE,78,2.0,3.0,56,0.00,,,0.00,Wunderground v.1.15,2013-11-15 17:59:00,
2013-11-15 12:09:00,54.9,39.5,29.93,East,91,3.0,3.0,56,0.00,,,0.00,Wunderground v.1.15,2013-11-15 18:09:00,
2013-11-15 12:14:00,55.6,40.1,29.93,ENE,66,3.0,3.0,56,0.00,,,0.00,Wunderground v.1.15,2013-11-15 18:14:00,
2013-11-15 12:24:00,56.6,40.6,29.92,ESE,121,3.0,5.0,55,0.00,,,0.00,Wunderground v.1.15,2013-11-15 18:24:00,
2013-11-15 12:34:00,56.0,40.1,29.92,East,86,4.0,4.0,55,0.00,,,0.00,Wunderground v.1.15,2013-11-15 18:34:00,
2013-11-15 12:39:00,55.5,40.0,29.92,NNE,20,4.0,4.0,56,0.00,,,0.00,Wunderground v.1.15,2013-11-15 18:39:00,
2013-11-15 12:49:00,54.9,40.4,29.92,ESE,109,2.0,4.0,58,0.00,,,0.00,Wunderground v.1.15,2013-11-15 18:49:00,
2013-11-15 12:54:00,54.7,40.6,29.92,East,98,2.0,4.0,59,0.00,,,0.00,Wunderground v.1.15,2013-11-15 18:54:00,
2013-11-15 13:04:00,55.1,40.6,29.91,ESE,122,2.0,4.0,58,0.00,,,0.00,Wunderground v.1.15,2013-11-15 19:04:00,
2013-11-15 13:09:00,55.5,41.0,29.91,NNE,30,3.0,4.0,58,0.00,,,0.00,Wunderground v.1.15,2013-11-15 19:09:00,
2013-11-15 13:14:00,56.6,41.5,29.91,SSE,153,2.0,8.0,57,0.00,,,0.00,Wunderground v.1.15,2013-11-15 19:14:00,
2013-11-15 13:24:00,56.0,41.9,29.91,ESE,110,4.0,4.0,59,0.00,,,0.00,Wunderground v.1.15,2013-11-15 19:24:00,
2013-11-15 13:29:00,56.2,41.6,29.91,SE,135,3.0,5.0,58,0.00,,,0.00,Wunderground v.1.15,2013-11-15 19:29:00,
2013-11-15 13:39:00,55.7,42.0,29.91,SE,134,4.0,5.0,60,0.00,,,0.00,Wunderground v.1.15,2013-11-15 19:39:00,
2013-11-15 13:49:00,55.8,42.5,29.91,ENE,75,4.0,4.0,61,0.00,,,0.00,Wunderground v.1.15,2013-11-15 19:49:00,
2013-11-15 13:54:00,56.8,43.1,29.91,South,170,3.0,4.0,60,0.00,,,0.00,Wunderground v.1.15,2013-11-15 19:54:00,
2013-11-15 14:04:00,57.3,43.1,29.90,ENE,65,4.0,4.0,59,0.00,,,0.00,Wunderground v.1.15,2013-11-15 20:04:00,
2013-11-15 14:14:00,58.2,43.5,29.89,East,80,2.0,2.0,58,0.00,,,0.00,Wunderground v.1.15,2013-11-15 20:14:00,
2013-11-15 14:24:00,57.7,43.0,29.89,ESE,118,3.0,4.0,58,0.00,,,0.00,Wunderground v.1.15,2013-11-15 20:24:00,
2013-11-15 14:29:00,56.9,42.7,29.89,SE,133,2.0,2.0,59,0.00,,,0.00,Wunderground v.1.15,2013-11-15 20:29:00,
2013-11-15 14:34:00,57.2,43.4,29.89,ESE,110,2.0,2.0,60,0.00,,,0.00,Wunderground v.1.15,2013-11-15 20:34:00,
2013-11-15 14:39:00,57.4,43.2,29.89,ENE,75,2.0,2.0,59,0.00,,,0.00,Wunderground v.1.15,2013-11-15 20:39:00,
2013-11-15 14:44:00,57.0,43.2,29.89,ESE,104,1.0,6.0,60,0.00,,,0.00,Wunderground v.1.15,2013-11-15 20:44:00,
2013-11-15 14:54:00,57.5,43.7,29.88,ESE,105,2.0,3.0,60,0.00,,,0.00,Wunderground v.1.15,2013-11-15 20:54:00,
2013-11-15 14:59:00,57.9,43.7,29.89,East,88,2.0,3.0,59,0.00,,,0.00,Wunderground v.1.15,2013-11-15 20:59:00,
2013-11-15 15:09:00,58.1,43.8,29.89,East,98,2.0,2.0,59,0.00,,,0.00,Wunderground v.1.15,2013-11-15 21:09:00,
2013-11-15 15:19:00,57.4,43.6,29.89,NNE,16,3.0,5.0,60,0.00,,,0.00,Wunderground v.1.15,2013-11-15 21:19:00,
2013-11-15 15:29:00,57.6,43.8,29.88,SSE,158,2.0,2.0,60,0.00,,,0.00,Wunderground v.1.15,2013-11-15 21:29:00,
2013-11-15 15:34:00,57.6,43.8,29.88,SE,127,2.0,2.0,60,0.00,,,0.00,Wunderground v.1.15,2013-11-15 21:34:00,
2013-11-15 15:39:00,57.4,43.6,29.88,NE,39,1.0,2.0,60,0.00,,,0.00,Wunderground v.1.15,2013-11-15 21:39:00,
2013-11-15 15:49:00,57.3,43.5,29.88,East,100,2.0,2.0,60,0.00,,,0.00,Wunderground v.1.15,2013-11-15 21:49:00,
2013-11-15 15:54:00,57.0,43.7,29.88,SE,145,2.0,2.0,61,0.00,,,0.00,Wunderground v.1.15,2013-11-15 21:54:00,
2013-11-15 16:04:00,56.5,43.6,29.88,NNE,32,2.0,4.0,62,0.00,,,0.00,Wunderground v.1.15,2013-11-15 22:04:00,
2013-11-15 16:09:00,56.1,43.3,29.88,NNE,30,2.0,5.0,62,0.00,,,0.00,Wunderground v.1.15,2013-11-15 22:09:00,
2013-11-15 16:19:00,55.5,43.1,29.88,ENE,60,2.0,2.0,63,0.00,,,0.00,Wunderground v.1.15,2013-11-15 22:19:00,
2013-11-15 16:29:00,54.9,42.9,29.88,ENE,65,2.0,2.0,64,0.00,,,0.00,Wunderground v.1.15,2013-11-15 22:29:00,
2013-11-15 16:34:00,54.7,43.2,29.88,ENE,60,1.0,2.0,65,0.00,,,0.00,Wunderground v.1.15,2013-11-15 22:34:00,
2013-11-15 16:44:00,54.2,43.1,29.86,NE,56,1.0,2.0,66,0.00,,,0.00,Wunderground v.1.15,2013-11-15 22:44:00,
2013-11-15 16:49:00,53.9,42.8,29.86,NNE,15,1.0,1.0,66,0.00,,,0.00,Wunderground v.1.15,2013-11-15 22:49:00,
2013-11-15 16:54:00,53.6,42.9,29.86,East,94,1.0,2.0,67,0.00,,,0.00,Wunderground v.1.15,2013-11-15 22:54:00,
2013-11-15 16:59:00,53.4,42.7,29.86,East,81,0.0,2.0,67,0.00,,,0.00,Wunderground v.1.15,2013-11-15 22:59:00,
2013-11-15 17:09:00,52.8,42.5,29.86,ENE,67,0.0,2.0,68,0.00,,,0.00,Wunderground v.1.15,2013-11-15 23:09:00,
2013-11-15 17:19:00,52.2,42.3,29.87,NE,42,0.0,2.0,69,0.00,,,0.00,Wunderground v.1.15,2013-11-15 23:19:00,
2013-11-15 17:24:00,52.0,42.5,29.87,NNE,32,0.0,2.0,70,0.00,,,0.00,Wunderground v.1.15,2013-11-15 23:24:00,
2013-11-15 17:34:00,51.6,42.5,29.86,NE,39,1.0,3.0,71,0.00,,,0.00,Wunderground v.1.15,2013-11-15 23:34:00,
2013-11-15 17:39:00,51.5,42.4,29.87,NNE,19,1.0,1.0,71,0.00,,,0.00,Wunderground v.1.15,2013-11-15 23:39:00,
2013-11-15 17:49:00,51.2,42.5,29.87,ESE,115,0.0,3.0,72,0.00,,,0.00,Wunderground v.1.15,2013-11-15 23:49:00,
2013-11-15 17:59:00,50.8,42.8,29.87,East,93,1.0,1.0,74,0.00,,,0.00,Wunderground v.1.15,2013-11-15 23:59:00,
2013-11-15 18:04:00,50.6,42.6,29.86,NE,40,1.0,2.0,74,0.00,,,0.00,Wunderground v.1.15,2013-11-16 00:04:00,
2013-11-15 18:09:00,50.5,42.9,29.86,NE,37,1.0,1.0,75,0.00,,,0.00,Wunderground v.1.15,2013-11-16 00:09:00,
2013-11-15 18:14:00,50.4,42.8,29.86,NE,40,1.0,2.0,75,0.00,,,0.00,Wunderground v.1.15,2013-11-16 00:14:00,
2013-11-15 18:19:00,50.3,43.0,29.85,North,357,1.0,2.0,76,0.00,,,0.00,Wunderground v.1.15,2013-11-16 00:19:00,
2013-11-15 18:29:00,50.0,43.1,29.86,NNE,30,1.0,2.0,77,0.00,,,0.00,Wunderground v.1.15,2013-11-16 00:29:00,
2013-11-15 18:39:00,49.7,43.1,29.86,NE,52,1.0,2.0,78,0.00,,,0.00,Wunderground v.1.15,2013-11-16 00:39:00,
2013-11-15 18:44:00,49.7,43.1,29.86,ENE,76,2.0,2.0,78,0.00,,,0.00,Wunderground v.1.15,2013-11-16 00:44:00,
2013-11-15 18:49:00,49.5,43.3,29.86,NNE,31,1.0,1.0,79,0.00,,,0.00,Wunderground v.1.15,2013-11-16 00:49:00,
2013-11-15 18:54:00,49.5,43.3,29.85,ENE,76,1.0,2.0,79,0.00,,,0.00,Wunderground v.1.15,2013-11-16 00:54:00,
2013-11-15 19:04:00,49.4,43.5,29.85,North,350,1.0,4.0,80,0.00,,,0.00,Wunderground v.1.15,2013-11-16 01:04:00,
2013-11-15 19:09:00,49.3,43.4,29.85,NE,56,1.0,1.0,80,0.00,,,0.00,Wunderground v.1.15,2013-11-16 01:09:00,
2013-11-15 19:14:00,49.2,43.6,29.85,NNE,29,1.0,2.0,81,0.00,,,0.00,Wunderground v.1.15,2013-11-16 01:14:00,
2013-11-15 19:19:00,49.2,43.6,29.85,NE,36,2.0,2.0,81,0.00,,,0.00,Wunderground v.1.15,2013-11-16 01:19:00,
2013-11-15 19:24:00,49.1,43.5,29.85,ENE,66,2.0,2.0,81,0.00,,,0.00,Wunderground v.1.15,2013-11-16 01:24:00,
2013-11-15 19:29:00,49.1,43.8,29.85,NNE,24,1.0,7.0,82,0.00,,,0.00,Wunderground v.1.15,2013-11-16 01:29:00,
2013-11-15 19:34:00,49.0,43.7,29.85,SSE,163,1.0,7.0,82,0.00,,,0.00,Wunderground v.1.15,2013-11-16 01:34:00,
2013-11-15 19:39:00,48.9,43.6,29.85,ESE,106,2.0,2.0,82,0.00,,,0.00,Wunderground v.1.15,2013-11-16 01:39:00,
2013-11-15 19:44:00,48.8,43.9,29.85,NNE,20,2.0,2.0,83,0.00,,,0.00,Wunderground v.1.15,2013-11-16 01:44:00,
2013-11-15 19:49:00,48.7,43.8,29.86,ESE,114,1.0,1.0,83,0.00,,,0.00,Wunderground v.1.15,2013-11-16 01:49:00,
2013-11-15 19:59:00,48.8,44.2,29.86,ESE,117,2.0,2.0,84,0.00,,,0.00,Wunderground v.1.15,2013-11-16 01:59:00,
2013-11-15 20:09:00,49.0,44.4,29.87,ESE,113,1.0,2.0,84,0.00,,,0.00,Wunderground v.1.15,2013-11-16 02:09:00,
2013-11-15 20:14:00,49.2,44.6,29.87,ENE,69,2.0,2.0,84,0.00,,,0.00,Wunderground v.1.15,2013-11-16 02:14:00,
2013-11-15 20:24:00,49.6,45.0,29.87,ESE,106,2.0,2.0,84,0.00,,,0.00,Wunderground v.1.15,2013-11-16 02:24:00,
2013-11-15 20:29:00,49.8,45.2,29.88,East,86,2.0,2.0,84,0.00,,,0.00,Wunderground v.1.15,2013-11-16 02:29:00,
2013-11-15 20:34:00,50.0,45.4,29.88,East,82,2.0,3.0,84,0.00,,,0.00,Wunderground v.1.15,2013-11-16 02:34:00,
2013-11-15 20:39:00,50.3,45.6,29.87,ESE,120,2.0,3.0,84,0.00,,,0.00,Wunderground v.1.15,2013-11-16 02:39:00,
2013-11-15 20:44:00,50.6,45.9,29.87,SSW,193,2.0,3.0,84,0.00,,,0.00,Wunderground v.1.15,2013-11-16 02:44:00,
2013-11-15 20:49:00,50.8,46.1,29.87,ESE,118,2.0,2.0,84,0.00,,,0.00,Wunderground v.1.15,2013-11-16 02:49:00,
2013-11-15 20:54:00,51.0,46.3,29.87,ENE,74,2.0,2.0,84,0.00,,,0.00,Wunderground v.1.15,2013-11-16 02:54:00,
2013-11-15 20:59:00,51.3,46.6,29.87,NE,36,2.0,2.0,84,0.00,,,0.00,Wunderground v.1.15,2013-11-16 02:59:00,
2013-11-15 21:09:00,51.7,46.7,29.87,ESE,111,3.0,3.0,83,0.00,,,0.00,Wunderground v.1.15,2013-11-16 03:09:00,
2013-11-15 21:14:00,51.8,46.8,29.87,SE,125,2.0,5.0,83,0.00,,,0.00,Wunderground v.1.15,2013-11-16 03:14:00,
2013-11-15 21:19:00,52.0,47.0,29.87,East,95,2.0,3.0,83,0.00,,,0.00,Wunderground v.1.15,2013-11-16 03:19:00,
2013-11-15 21:29:00,52.2,47.2,29.86,ESE,104,3.0,3.0,83,0.00,,,0.00,Wunderground v.1.15,2013-11-16 03:29:00,
2013-11-15 21:34:00,52.2,47.2,29.87,East,98,2.0,5.0,83,0.00,,,0.00,Wunderground v.1.15,2013-11-16 03:34:00,
2013-11-15 21:39:00,52.3,47.3,29.87,ENE,70,3.0,3.0,83,0.00,,,0.00,Wunderground v.1.15,2013-11-16 03:39:00,
2013-11-15 21:44:00,52.3,47.3,29.86,ESE,114,3.0,3.0,83,0.00,,,0.00,Wunderground v.1.15,2013-11-16 03:44:00,
2013-11-15 21:49:00,52.4,47.4,29.86,NE,52,3.0,3.0,83,0.00,,,0.00,Wunderground v.1.15,2013-11-16 03:49:00,
2013-11-15 21:54:00,52.4,47.4,29.85,ENE,63,3.0,4.0,83,0.00,,,0.00,Wunderground v.1.15,2013-11-16 03:54:00,
2013-11-15 21:59:00,52.4,47.4,29.85,East,84,3.0,6.0,83,0.00,,,0.00,Wunderground v.1.15,2013-11-16 03:59:00,
2013-11-15 22:04:00,52.4,47.4,29.86,ESE,110,3.0,8.0,83,0.00,,,0.00,Wunderground v.1.15,2013-11-16 04:04:00,
2013-11-15 22:14:00,52.4,47.7,29.86,ESE,105,5.0,6.0,84,0.00,,,0.00,Wunderground v.1.15,2013-11-16 04:14:00,
2013-11-15 22:19:00,52.5,47.8,29.86,South,178,4.0,4.0,84,0.00,,,0.00,Wunderground v.1.15,2013-11-16 04:19:00,
2013-11-15 22:24:00,52.5,47.8,29.86,East,84,5.0,9.0,84,0.00,,,0.00,Wunderground v.1.15,2013-11-16 04:24:00,
2013-11-15 22:29:00,52.5,47.8,29.86,East,90,5.0,5.0,84,0.00,,,0.00,Wunderground v.1.15,2013-11-16 04:29:00,
2013-11-15 22:34:00,52.5,47.8,29.86,SSW,193,4.0,5.0,84,0.00,,,0.00,Wunderground v.1.15,2013-11-16 04:34:00,
2013-11-15 22:39:00,52.5,47.8,29.86,ESE,123,5.0,5.0,84,0.00,,,0.00,Wunderground v.1.15,2013-11-16 04:39:00,
2013-11-15 22:44:00,52.6,47.9,29.86,East,80,5.0,8.0,84,0.00,,,0.00,Wunderground v.1.15,2013-11-16 04:44:00,
2013-11-15 22:49:00,52.6,47.9,29.85,ESE,105,7.0,8.0,84,0.00,,,0.00,Wunderground v.1.15,2013-11-16 04:49:00,
2013-11-15 22:54:00,52.6,47.9,29.86,SE,129,7.0,8.0,84,0.00,,,0.00,Wunderground v.1.15,2013-11-16 04:54:00,
2013-11-15 22:59:00,52.6,47.9,29.85,ESE,109,5.0,10.0,84,0.00,,,0.00,Wunderground v.1.15,2013-11-16 04:59:00,
2013-11-15 23:04:00,52.6,47.9,29.86,ESE,108,5.0,10.0,84,0.00,,,0.00,Wunderground v.1.15,2013-11-16 05:04:00,
2013-11-15 23:14:00,52.7,48.0,29.85,ESE,118,5.0,10.0,84,0.00,,,0.00,Wunderground v.1.15,2013-11-16 05:14:00,
2013-11-15 23:19:00,52.7,48.3,29.85,SE,124,5.0,5.0,85,0.00,,,0.00,Wunderground v.1.15,2013-11-16 05:19:00,
2013-11-15 23:24:00,52.7,48.3,29.85,SSE,152,5.0,5.0,85,0.00,,,0.00,Wunderground v.1.15,2013-11-16 05:24:00,
2013-11-15 23:29:00,52.7,48.3,29.85,ESE,121,4.0,6.0,85,0.00,,,0.00,Wunderground v.1.15,2013-11-16 05:29:00,
2013-11-15 23:34:00,52.7,48.3,29.85,ESE,107,2.0,6.0,85,0.00,,,0.00,Wunderground v.1.15,2013-11-16 05:34:00,
2013-11-15 23:39:00,52.7,48.3,29.85,SE,128,2.0,2.0,85,0.00,,,0.00,Wunderground v.1.15,2013-11-16 05:39:00,
2013-11-15 23:44:00,52.7,48.3,29.84,NE,53,2.0,2.0,85,0.00,,,0.00,Wunderground v.1.15,2013-11-16 05:44:00,
2013-11-15 23:49:00,52.8,48.4,29.85,ENE,72,3.0,6.0,85,0.00,,,0.00,Wunderground v.1.15,2013-11-16 05:49:00,
2013-11-15 23:54:00,52.8,48.4,29.84,East,87,4.0,6.0,85,0.00,,,0.00,Wunderground v.1.15,2013-11-16 05:54:00,
2013-11-15 23:59:00,52.9,48.5,29.84,SE,136,5.0,5.0,85,0.00,,,0.00,Wunderground v.1.15,2013-11-16 05:59:00,